Location: Warner Observatory
(35.1353°N, 89.5455°W)
Time: 13:49:26
(UTC-06:00)

Envisat - Pass Details

Date: 26 January 2020
Orbit: 764 x 766 km, 98.1° (Epoch: 23 February)

Event Time Altitude Azimuth Distance (km) Brightness Sun altitude
Rises 19:09:05 0° 211° (SSW) 3,218 6.8 -22.3°
Reaches altitude 10° 19:12:27 10° 235° (SW) 2,297 6.3 -23.0°
Maximum altitude 19:15:11 15° 268° (W) 1,998 6.1 -23.5°
Drops below altitude 10° 19:17:57 10° 301° (WNW) 2,305 6.2 -24.1°
Sets 19:21:21 0° 325° (NW) 3,236 6.6 -24.8°
